Regional Weather Roundup
Issued by NWS Columbia, SC

Home | Current Version | Previous Version | Text Only | Print | Product List | Glossary On
Versions: 1 2 3 4 5 6 7 8 9 10 11 12 13 14 15 16 17 18 19 20 21 22 23 24 25 26 27 28 29 30 31 32 33 34 35 36 37 38 39 40 41 42 43 44 45 46 47 48 49 50
000
ASUS42 KCAE 281710
RWRCAE
REGIONAL WEATHER ROUNDUP
NATIONAL WEATHER SERVICE COLUMBIA SC
100 PM EDT SAT MAR 28 2020

NOTE: "FAIR" INDICATES FEW OR NO CLOUDS BELOW 12,000 FEET WITH NO
SIGNIFICANT WEATHER AND/OR OBSTRUCTIONS TO VISIBILITY.

NOT ALL STATIONS ARE QUALITY CONTROLLED BY THE NATIONAL
WEATHER SERVICE. USE DATA WITH CAUTION...ESPECIALLY
DEWPOINT OBSERVATIONS.

SCZ001>056-GAZ040-063>065-077-281800-
...UPSTATE SOUTH CAROLINA...

CITY           SKY/WX    TMP DP  RH WIND       PRES   REMARKS
ANDERSON       FAIR      78  60  53 SW21G26   29.98F
LIBERTY        FAIR      79  62  55 W14G23    29.95F
SPARTANBURG    FAIR      79  61  53 SW10G21   29.94S
CLEMSON        FAIR      77  60  55 W12G22    29.97F
GREENVILLE     FAIR      79  63  57 SW14G22   29.96F
GREENWOOD      FAIR      78  62  57 SW16      29.99F
GREER          FAIR      79  62  56 SW21      29.96S
ROCK HILL      FAIR      84  61  45 SW17G23   29.94F
CHESTER        FAIR      82  57  42 SW12G18   29.95F HAZE
LAURENS        FAIR      79  63  57 SW12G22   29.97S


...CENTRAL SOUTH CAROLINA...

CITY           SKY/WX    TMP DP  RH WIND       PRES   REMARKS
COLUMBIA APT   FAIR      86  58  38 SW22G32   29.96F
COLUMBIA OWENS FAIR      85  62  46 SW14G20   29.97F
MCENTIRE ANGB  MOSUNNY   84  62  47 SW15G21   29.97F
ORANGEBURG     FAIR      83  62  49 SW16      30.00S
SUMTER SHAW    FAIR      84  64  50 SW16G22   29.97F
NEWBERRY       FAIR      79  64  61 SW17      29.99F
AIKEN          FAIR      81  64  55 SW15G22   30.01F
BARNWELL       FAIR      82  63  51 W13G21    30.00F
MANNING        FAIR      81  64  57 SW12      30.00S
CAMDEN         FAIR      84  61  45 S14       29.96F
LANCASTER      FAIR      82  64  54 CALM      29.94F
WINNSBORO      FAIR      81  61  50 SW13G18   29.97F


...EASTERN AND COASTAL SOUTH CAROLINA...

CITY           SKY/WX    TMP DP  RH WIND       PRES   REMARKS
MYRTLE BEACH   FAIR      76  67  73 S12       29.99F
N MYRTLE BCH   FAIR      75  66  73 S10       29.98F
CONWAY         FAIR      84  64  51 SW12G17   29.98F
MARION         FAIR      82  68  61 SW10      29.97F
HARTSVILLE     FAIR      86  61  42 SW10G18   29.96F
FLORENCE       FAIR      86  64  47 SW12      29.96F
DARLINGTON     FAIR      84  67  56 SW15      29.95F
CHARLESTON APT FAIR      83  67  58 SW12      30.01F
MOUNT PLEASANT FAIR      81  70  69 CALM      30.02S
WALTERBORO     FAIR      82  63  51 SW14G20   30.02F
BEAUFORT       FAIR      81  69  67 SE10G18   30.03F
HILTON HEAD    SUNNY     77  68  73 S9        30.05F


...EASTERN GEORGIA...

CITY           SKY/WX    TMP DP  RH WIND       PRES   REMARKS
AUGUSTA BUSH F FAIR      82  64  54 W14       30.00F
AUGUSTA DANIEL FAIR      78  63  59 W7        30.03S
THOMSON        FAIR      79  64  60 W8        30.01F
WASHINGTON     FAIR      77  63  61 SW8G16    30.00F
CLAXTON        FAIR      84  65  52 W6        30.03F HAZE
SYLVANIA       FAIR      83  65  54 W13G18    30.04S
STATESBORO     FAIR      82  63  51 SW10G21   30.03S
SAVANNAH       FAIR      85  64  49 W13G20    30.03F


...SOUTHERN NORTH CAROLINA...

CITY           SKY/WX    TMP DP  RH WIND       PRES   REMARKS
CHARLOTTE      FAIR      83  64  52 S15       29.93F
MONROE         FAIR      83  64  52 SW10G22   29.92F
WADESBORO      FAIR      84  63  50 S9G17     29.92F
ROCKINGHAM     FAIR      83  58  41 SW10      29.94F
RUTHERFORDTON  FAIR      81  59  47 SW13G24   29.93F
ASHEVILLE      FAIR      83  50  31 VRB3      29.95F

$$



USA.gov is the U.S. government's official web portal to all federal, state and local government web resources and services.